When you browse on this site, cookies collect data to enhance your experience and personalize the content and advertising you see.
Visit our Privacy Policy to learn more. By continuing to use the site, you agree to this use of cookies and data.
  • In Austria
  • List of Countries
  • For 7 days
  • Water Temperature
  • Satellite Maps
  • Weather Map
  • News
  • Weather Widgets
  • user-avatar
    Login

    Hourly Weather Pułtusk

    Today, 14 December, Friday

    Time Temperature Precipitation Wind Pressure Humidity
    00:00 -2°C° 0 mm 2 mps 761 mmHg 79%
    01:00 -2°C° 0 mm 2 mps 761 mmHg 79%
    02:00 -2°C° 0 mm 2 mps 761 mmHg 80%
    03:00 -2°C° 0 mm 2 mps 761 mmHg 80%
    04:00 -2°C° 0 mm 2 mps 761 mmHg 81%
    05:00 -2°C° 0 mm 3 mps 761 mmHg 82%
    06:00 -2°C° 0 mm 3 mps 761 mmHg 83%
    07:00 -2°C° 0 mm 3 mps 762 mmHg 84%
    08:00 -2°C° 0 mm 3 mps 762 mmHg 83%
    09:00 -1°C° 0 mm 3 mps 762 mmHg 82%
    10:00 -1°C° 0 mm 3 mps 762 mmHg 81%
    11:00 -1°C° 0 mm 3 mps 762 mmHg 80%
    12:00 0°C° 0 mm 3 mps 763 mmHg 79%
    13:00 0°C° 0 mm 3 mps 763 mmHg 78%
    14:00 0°C° 0 mm 3 mps 763 mmHg 80%
    15:00 -1°C° 0 mm 2 mps 763 mmHg 83%
    16:00 -1°C° 0 mm 2 mps 763 mmHg 85%
    17:00 -1°C° 0 mm 2 mps 763 mmHg 86%
    18:00 -1°C° 0 mm 3 mps 764 mmHg 87%
    19:00 -1°C° 0 mm 3 mps 764 mmHg 88%
    20:00 -1°C° 0 mm 3 mps 764 mmHg 88%
    21:00 -1°C° 0 mm 3 mps 764 mmHg 88%
    22:00 -1°C° 0 mm 3 mps 764 mmHg 89%
    23:00 -1°C° 0 mm 3 mps 764 mmHg 89%

    Tomorrow, 15 December, Saturday

    Time Temperature Precipitation Wind Pressure Humidity
    00:00 -1°C° 0 mm 2 mps 765 mmHg 90%
    01:00 -1°C° 0 mm 2 mps 765 mmHg 90%
    02:00 -1°C° 0 mm 3 mps 765 mmHg 90%
    03:00 -1°C° 0 mm 3 mps 765 mmHg 90%
    04:00 -1°C° 0 mm 3 mps 765 mmHg 90%
    05:00 -1°C° 0 mm 3 mps 765 mmHg 90%
    06:00 -1°C° 0 mm 3 mps 765 mmHg 90%
    07:00 -2°C° 0 mm 3 mps 765 mmHg 90%
    08:00 -1°C° 0 mm 3 mps 766 mmHg 88%
    09:00 -1°C° 0 mm 3 mps 766 mmHg 86%
    10:00 -2°C° 0 mm 4 mps 766 mmHg 84%
    11:00 -2°C° 0 mm 4 mps 766 mmHg 81%
    12:00 0°C° 0 mm 3 mps 766 mmHg 79%
    13:00 0°C° 0 mm 3 mps 765 mmHg 77%
    14:00 -1°C° 0 mm 3 mps 765 mmHg 79%
    15:00 -1°C° 0 mm 3 mps 765 mmHg 80%
    16:00 -1°C° 0 mm 3 mps 765 mmHg 82%
    17:00 -1°C° 0 mm 3 mps 765 mmHg 82%
    18:00 -2°C° 0 mm 3 mps 765 mmHg 83%
    19:00 -2°C° 0 mm 3 mps 765 mmHg 84%
    20:00 -2°C° 0 mm 3 mps 765 mmHg 83%
    21:00 -2°C° 0 mm 3 mps 765 mmHg 83%
    22:00 -3°C° 0 mm 4 mps 765 mmHg 82%
    23:00 -3°C° 0 mm 4 mps 765 mmHg 81%

    Day after tomorrow, 16 December, Sunday

    Time Temperature Precipitation Wind Pressure Humidity
    00:00 -3°C° 0 mm 4 mps 764 mmHg 80%
    01:00 -3°C° 0 mm 4 mps 764 mmHg 79%
    02:00 -3°C° 0 mm 4 mps 764 mmHg 78%
    03:00 -3°C° 0 mm 4 mps 763 mmHg 77%
    04:00 -4°C° 0 mm 5 mps 763 mmHg 76%
    05:00 -4°C° 0.1 mm 5 mps 763 mmHg 77%
    06:00 -4°C° 0.1 mm 5 mps 762 mmHg 79%
    07:00 -4°C° 0.1 mm 5 mps 762 mmHg 81%
    08:00 -4°C° 0.2 mm 5 mps 762 mmHg 81%
    09:00 -4°C° 0.2 mm 6 mps 762 mmHg 81%
    10:00 -4°C° 0.2 mm 6 mps 762 mmHg 81%
    11:00 -4°C° 0.3 mm 6 mps 761 mmHg 83%
    12:00 -4°C° 0.3 mm 5 mps 761 mmHg 84%
    13:00 -4°C° 0.3 mm 5 mps 761 mmHg 86%
    14:00 -4°C° 0.3 mm 5 mps 760 mmHg 86%
    15:00 -4°C° 0.3 mm 5 mps 760 mmHg 87%
    16:00 -4°C° 0.3 mm 5 mps 759 mmHg 88%
    17:00 -4°C° 0.5 mm 5 mps 759 mmHg 90%
    18:00 -3°C° 0.5 mm 4 mps 759 mmHg 91%
    19:00 -3°C° 0.5 mm 4 mps 759 mmHg 92%
    20:00 -3°C° 0.2 mm 4 mps 759 mmHg 92%
    21:00 -3°C° 0.2 mm 4 mps 759 mmHg 92%
    22:00 -3°C° 0.2 mm 4 mps 759 mmHg 92%
    23:00 -3°C° 0 mm 4 mps 759 mmHg 92%

    17 December, Monday

    Time Temperature Precipitation Wind Pressure Humidity
    00:00 -3°C° 0 mm 4 mps 759 mmHg 92%
    01:00 -2°C° 0 mm 3 mps 759 mmHg 92%
    02:00 -2°C° 0 mm 3 mps 759 mmHg 93%
    03:00 -2°C° 0 mm 3 mps 759 mmHg 94%
    04:00 -2°C° 0 mm 3 mps 758 mmHg 94%
    05:00 -2°C° 0 mm 2 mps 759 mmHg 95%
    06:00 -2°C° 0 mm 2 mps 759 mmHg 95%
    07:00 -2°C° 0 mm 2 mps 759 mmHg 95%
    08:00 -2°C° 0 mm 2 mps 759 mmHg 94%
    09:00 -2°C° 0 mm 2 mps 759 mmHg 94%
    10:00 -1°C° 0 mm 2 mps 759 mmHg 93%
    11:00 -1°C° 0 mm 2 mps 759 mmHg 92%
    12:00 -1°C° 0 mm 2 mps 759 mmHg 92%
    13:00 -1°C° 0 mm 2 mps 759 mmHg 92%
    14:00 +1°C° 0 mm 1 mps 759 mmHg 92%
    15:00 +1°C° 0 mm 1 mps 759 mmHg 93%
    16:00 0°C° 0 mm 1 mps 760 mmHg 93%
    17:00 0°C° 0 mm 1 mps 760 mmHg 93%
    18:00 0°C° 0 mm 1 mps 760 mmHg 93%
    19:00 0°C° 0 mm 1 mps 760 mmHg 93%
    20:00 0°C° 0 mm 1 mps 760 mmHg 92%
    21:00 -1°C° 0 mm 1 mps 761 mmHg 92%
    22:00 -1°C° 0 mm 1 mps 761 mmHg 91%
    23:00 -1°C° 0 mm 1 mps 761 mmHg 91%

    18 December, Tuesday

    Time Temperature Precipitation Wind Pressure Humidity
    00:00 -1°C° 0 mm 1 mps 761 mmHg 90%
    01:00 -1°C° 0 mm 1 mps 761 mmHg 90%
    02:00 -1°C° 0 mm 1 mps 762 mmHg 89%
    03:00 -1°C° 0 mm 1 mps 762 mmHg 89%
    04:00 -1°C° 0 mm 1 mps 762 mmHg 88%
    05:00 -2°C° 0 mm 1 mps 762 mmHg 89%
    06:00 -2°C° 0 mm 1 mps 762 mmHg 89%
    07:00 -3°C° 0 mm 0 mps 762 mmHg 89%
    08:00 -2°C° 0 mm 0 mps 763 mmHg 87%
    09:00 -1°C° 0 mm 1 mps 763 mmHg 86%
    10:00 -1°C° 0 mm 1 mps 763 mmHg 85%
    11:00 0°C° 0 mm 1 mps 763 mmHg 84%
    12:00 -1°C° 0 mm 0 mps 763 mmHg 83%
    13:00 0°C° 0 mm 0 mps 763 mmHg 82%
    14:00 -1°C° 0 mm 0 mps 763 mmHg 84%
    15:00 -2°C° 0 mm 0 mps 763 mmHg 87%
    16:00 -3°C° 0 mm 0 mps 763 mmHg 89%
    17:00 -3°C° 0 mm 0 mps 763 mmHg 89%
    18:00 -3°C° 0 mm 0 mps 763 mmHg 90%
    19:00 -3°C° 0 mm 0 mps 763 mmHg 90%
    20:00 -3°C° 0 mm 1 mps 763 mmHg 90%
    21:00 -3°C° 0 mm 1 mps 763 mmHg 90%
    22:00 -3°C° 0 mm 1 mps 763 mmHg 91%
    23:00 -3°C° 0 mm 1 mps 763 mmHg 91%

    19 December, Wednesday

    Time Temperature Precipitation Wind Pressure Humidity
    00:00 -3°C° 0 mm 1 mps 763 mmHg 91%
    01:00 -5°C° 0 mm 2 mps 763 mmHg 92%
    02:00 -5°C° 0 mm 2 mps 762 mmHg 92%
    03:00 -5°C° 0 mm 2 mps 762 mmHg 93%
    04:00 -5°C° 0 mm 2 mps 762 mmHg 93%
    05:00 -5°C° 0 mm 2 mps 762 mmHg 94%
    06:00 -6°C° 0 mm 3 mps 762 mmHg 94%
    07:00 -6°C° 0 mm 3 mps 762 mmHg 95%
    08:00 -6°C° 0 mm 3 mps 762 mmHg 94%
    09:00 -5°C° 0 mm 4 mps 761 mmHg 93%
    10:00 -4°C° 0 mm 4 mps 761 mmHg 92%
    11:00 -4°C° 0 mm 4 mps 761 mmHg 90%
    12:00 -3°C° 0 mm 4 mps 760 mmHg 89%
    13:00 -3°C° 0 mm 4 mps 759 mmHg 88%
    14:00 -4°C° 0 mm 5 mps 759 mmHg 89%
    15:00 -4°C° 0 mm 5 mps 759 mmHg 90%
    16:00 -4°C° 0 mm 5 mps 759 mmHg 90%
    17:00 -4°C° 0 mm 5 mps 758 mmHg 91%
    18:00 -4°C° 0 mm 5 mps 758 mmHg 91%
    19:00 -4°C° 0 mm 5 mps 758 mmHg 91%
    20:00 -5°C° 0 mm 5 mps 758 mmHg 91%
    21:00 -5°C° 0 mm 5 mps 758 mmHg 91%
    22:00 -5°C° 0 mm 5 mps 757 mmHg 91%
    23:00 -4°C° 0 mm 4 mps 757 mmHg 91%
    Show more